Year,Month,Day,Hour,Minute,Value (Times are PST for temperature in C)
2005,10,22,00,00,10.10
2005,10,22,00,01,10.10
2005,10,22,00,02,10.10
2005,10,22,00,03,10.00
2005,10,22,00,04,10.00
2005,10,22,00,05,10.10
2005,10,22,00,06,10.10
2005,10,22,00,07,10.10
2005,10,22,00,08,10.10
2005,10,22,00,09,10.10
2005,10,22,00,10,10.10
2005,10,22,00,11,10.20
2005,10,22,00,12,10.10
2005,10,22,00,13,10.10
2005,10,22,00,14,10.10
2005,10,22,00,15,10.00
2005,10,22,00,16,9.90
2005,10,22,00,17,9.90
2005,10,22,00,18,9.90
2005,10,22,00,19,9.90
2005,10,22,00,20,9.90
2005,10,22,00,21,9.90
2005,10,22,00,22,10.00
2005,10,22,00,23,10.10
2005,10,22,00,24,10.10
2005,10,22,00,25,10.10
2005,10,22,00,26,10.10
2005,10,22,00,27,10.20
2005,10,22,00,28,10.20
2005,10,22,00,29,10.20
2005,10,22,00,30,10.20
2005,10,22,00,31,10.20
2005,10,22,00,32,10.20
2005,10,22,00,33,10.20
2005,10,22,00,34,10.20
2005,10,22,00,35,10.20
2005,10,22,00,36,10.20
2005,10,22,00,37,10.20
2005,10,22,00,38,10.20
2005,10,22,00,39,10.20
2005,10,22,00,40,10.30
2005,10,22,00,41,10.30
2005,10,22,00,42,10.30
2005,10,22,00,43,10.40
2005,10,22,00,44,10.40
2005,10,22,00,45,10.40
2005,10,22,00,46,10.40
2005,10,22,00,47,10.40
2005,10,22,00,48,10.40
2005,10,22,00,49,10.40
2005,10,22,00,50,10.40
2005,10,22,00,51,10.30
2005,10,22,00,52,10.20
2005,10,22,00,53,10.00
2005,10,22,00,54,9.90
2005,10,22,00,55,9.80
2005,10,22,00,56,9.70
2005,10,22,00,57,9.70
2005,10,22,00,58,9.60
2005,10,22,00,59,9.60
2005,10,22,01,00,9.50
2005,10,22,01,01,9.40
2005,10,22,01,02,9.40
2005,10,22,01,03,9.30
2005,10,22,01,04,9.20
2005,10,22,01,05,9.20
2005,10,22,01,06,9.20
2005,10,22,01,07,9.20
2005,10,22,01,08,9.20
2005,10,22,01,09,9.20
2005,10,22,01,10,9.20
2005,10,22,01,11,9.20
2005,10,22,01,12,9.20
2005,10,22,01,13,9.30
2005,10,22,01,14,9.30
2005,10,22,01,15,9.30
2005,10,22,01,16,9.40
2005,10,22,01,17,9.40
2005,10,22,01,18,9.50
2005,10,22,01,19,9.50
2005,10,22,01,20,9.60
2005,10,22,01,21,9.60
2005,10,22,01,22,9.70
2005,10,22,01,23,9.70
2005,10,22,01,24,9.70
2005,10,22,01,25,9.70
2005,10,22,01,26,9.70
2005,10,22,01,27,9.70
2005,10,22,01,28,9.70
2005,10,22,01,29,9.70
2005,10,22,01,30,9.70
2005,10,22,01,31,9.80
2005,10,22,01,32,9.80
2005,10,22,01,33,9.80
2005,10,22,01,34,9.80
2005,10,22,01,35,9.80
2005,10,22,01,36,9.80
2005,10,22,01,37,9.80
2005,10,22,01,38,9.90
2005,10,22,01,39,9.90
2005,10,22,01,40,9.90
2005,10,22,01,41,9.90
2005,10,22,01,42,9.90
2005,10,22,01,43,9.90
2005,10,22,01,44,9.90
2005,10,22,01,45,9.90
2005,10,22,01,46,9.90
2005,10,22,01,47,9.90
2005,10,22,01,48,9.90
2005,10,22,01,49,9.90
2005,10,22,01,50,9.90
2005,10,22,01,51,9.90
2005,10,22,01,52,9.90
2005,10,22,01,53,9.90
2005,10,22,01,54,9.90
2005,10,22,01,55,9.90
2005,10,22,01,56,9.90
2005,10,22,01,57,9.80
2005,10,22,01,58,9.70
2005,10,22,01,59,9.70
2005,10,22,02,00,9.70
2005,10,22,02,01,9.70
2005,10,22,02,02,9.70
2005,10,22,02,03,9.60
2005,10,22,02,04,9.60
2005,10,22,02,05,9.60
2005,10,22,02,06,9.60
2005,10,22,02,07,9.50
2005,10,22,02,08,9.50
2005,10,22,02,09,9.40
2005,10,22,02,10,9.40
2005,10,22,02,11,9.30
2005,10,22,02,12,9.30
2005,10,22,02,13,9.30
2005,10,22,02,14,9.20
2005,10,22,02,15,9.20
2005,10,22,02,16,9.20
2005,10,22,02,17,9.20
2005,10,22,02,18,9.20
2005,10,22,02,19,9.10
2005,10,22,02,20,9.00
2005,10,22,02,21,9.00
2005,10,22,02,22,9.00
2005,10,22,02,23,8.90
2005,10,22,02,24,8.90
2005,10,22,02,25,8.80
2005,10,22,02,26,8.80
2005,10,22,02,27,8.70
2005,10,22,02,28,8.70
2005,10,22,02,29,8.70
2005,10,22,02,30,8.70
2005,10,22,02,31,8.70
2005,10,22,02,32,8.70
2005,10,22,02,33,8.70
2005,10,22,02,34,8.70
2005,10,22,02,35,8.70
2005,10,22,02,36,8.70
2005,10,22,02,37,8.70
2005,10,22,02,38,8.70
2005,10,22,02,39,8.80
2005,10,22,02,40,8.80
2005,10,22,02,41,8.80
2005,10,22,02,42,8.80
2005,10,22,02,43,8.80
2005,10,22,02,44,8.80
2005,10,22,02,45,8.80
2005,10,22,02,46,8.80
2005,10,22,02,47,8.80
2005,10,22,02,48,8.80
2005,10,22,02,49,8.80
2005,10,22,02,50,8.80
2005,10,22,02,51,8.80
2005,10,22,02,52,8.80
2005,10,22,02,53,8.80
2005,10,22,02,54,8.80
2005,10,22,02,55,8.80
2005,10,22,02,56,8.80
2005,10,22,02,57,8.70
2005,10,22,02,58,8.70
2005,10,22,02,59,8.70
2005,10,22,03,00,8.70
2005,10,22,03,01,8.70
2005,10,22,03,02,8.70
2005,10,22,03,03,8.60
2005,10,22,03,04,8.70
2005,10,22,03,05,8.70
2005,10,22,03,06,8.70
2005,10,22,03,07,8.70
2005,10,22,03,08,8.70
2005,10,22,03,09,8.70
2005,10,22,03,10,8.70
2005,10,22,03,11,8.70
2005,10,22,03,12,8.70
2005,10,22,03,13,8.70
2005,10,22,03,14,8.70
2005,10,22,03,15,8.70
2005,10,22,03,16,8.70
2005,10,22,03,17,8.60
2005,10,22,03,18,8.60
2005,10,22,03,19,8.60
2005,10,22,03,20,8.60
2005,10,22,03,21,8.60
2005,10,22,03,22,8.60
2005,10,22,03,23,8.50
2005,10,22,03,24,8.50
2005,10,22,03,25,8.50
2005,10,22,03,26,8.50
2005,10,22,03,27,8.40
2005,10,22,03,28,8.40
2005,10,22,03,29,8.40
2005,10,22,03,30,8.40
2005,10,22,03,31,8.40
2005,10,22,03,32,8.50
2005,10,22,03,33,8.50
2005,10,22,03,34,8.50
2005,10,22,03,35,8.50
2005,10,22,03,36,8.60
2005,10,22,03,37,8.60
2005,10,22,03,38,8.60
2005,10,22,03,39,8.60
2005,10,22,03,40,8.60
2005,10,22,03,41,8.70
2005,10,22,03,42,8.70
2005,10,22,03,43,8.70
2005,10,22,03,44,8.70
2005,10,22,03,45,8.70
2005,10,22,03,46,8.70
2005,10,22,03,47,8.70
2005,10,22,03,48,8.70
2005,10,22,03,49,8.70
2005,10,22,03,50,8.70
2005,10,22,03,51,8.70
2005,10,22,03,52,8.70
2005,10,22,03,53,8.70
2005,10,22,03,54,8.70
2005,10,22,03,55,8.60
2005,10,22,03,56,8.60
2005,10,22,03,57,8.60
2005,10,22,03,58,8.60
2005,10,22,03,59,8.60
2005,10,22,04,00,8.60
2005,10,22,04,01,8.60
2005,10,22,04,02,8.50
2005,10,22,04,03,8.50
2005,10,22,04,04,8.50
2005,10,22,04,05,8.50
2005,10,22,04,06,8.50
2005,10,22,04,07,8.40
2005,10,22,04,08,8.40
2005,10,22,04,09,8.40
2005,10,22,04,10,8.30
2005,10,22,04,11,8.20
2005,10,22,04,12,8.10
2005,10,22,04,13,8.00
2005,10,22,04,14,7.90
2005,10,22,04,15,7.90
2005,10,22,04,16,7.80
2005,10,22,04,17,7.80
2005,10,22,04,18,7.80
2005,10,22,04,19,7.80
2005,10,22,04,20,7.70
2005,10,22,04,21,7.70
2005,10,22,04,22,7.70
2005,10,22,04,23,7.70
2005,10,22,04,24,7.70
2005,10,22,04,25,7.70
2005,10,22,04,26,7.70
2005,10,22,04,27,7.70
2005,10,22,04,28,7.70
2005,10,22,04,29,7.70
2005,10,22,04,30,7.70
2005,10,22,04,31,7.60
2005,10,22,04,32,7.60
2005,10,22,04,33,7.60
2005,10,22,04,34,7.70
2005,10,22,04,35,7.80
2005,10,22,04,36,7.90
2005,10,22,04,37,8.00
2005,10,22,04,38,8.10
2005,10,22,04,39,8.10
2005,10,22,04,40,8.10
2005,10,22,04,41,8.00
2005,10,22,04,42,8.00
2005,10,22,04,43,7.90
2005,10,22,04,44,7.90
2005,10,22,04,45,7.90
2005,10,22,04,46,7.80
2005,10,22,04,47,7.80
2005,10,22,04,48,7.80
2005,10,22,04,49,7.80
2005,10,22,04,50,7.80
2005,10,22,04,51,7.80
2005,10,22,04,52,7.80
2005,10,22,04,53,7.80
2005,10,22,04,54,7.80
2005,10,22,04,55,7.70
2005,10,22,04,56,7.70
2005,10,22,04,57,7.70
2005,10,22,04,58,7.70
2005,10,22,04,59,7.70
2005,10,22,05,00,7.70
2005,10,22,05,01,7.70
2005,10,22,05,02,7.70
2005,10,22,05,03,7.70
2005,10,22,05,04,7.70
2005,10,22,05,05,7.70
2005,10,22,05,06,7.70
2005,10,22,05,07,7.70
2005,10,22,05,08,7.80
2005,10,22,05,09,7.80
2005,10,22,05,10,7.80
2005,10,22,05,11,7.80
2005,10,22,05,12,7.80
2005,10,22,05,13,7.80
2005,10,22,05,14,7.80
2005,10,22,05,15,7.80
2005,10,22,05,16,7.80
2005,10,22,05,17,7.80
2005,10,22,05,18,7.80
2005,10,22,05,19,7.80
2005,10,22,05,20,7.80
2005,10,22,05,21,7.80
2005,10,22,05,22,7.80
2005,10,22,05,23,7.90
2005,10,22,05,24,8.00
2005,10,22,05,25,8.10
2005,10,22,05,26,8.20
2005,10,22,05,27,8.20
2005,10,22,05,28,8.10
2005,10,22,05,29,8.00
2005,10,22,05,30,7.90
2005,10,22,05,31,7.90
2005,10,22,05,32,7.80
2005,10,22,05,33,7.80
2005,10,22,05,34,7.70
2005,10,22,05,35,7.60
2005,10,22,05,36,7.60
2005,10,22,05,37,7.50
2005,10,22,05,38,7.50
2005,10,22,05,39,7.40
2005,10,22,05,40,7.30
2005,10,22,05,41,7.30
2005,10,22,05,42,7.30
2005,10,22,05,43,7.30
2005,10,22,05,44,7.30
2005,10,22,05,45,7.30
2005,10,22,05,46,7.30
2005,10,22,05,47,7.30
2005,10,22,05,48,7.30
2005,10,22,05,49,7.30
2005,10,22,05,50,7.30
2005,10,22,05,51,7.30
2005,10,22,05,52,7.30
2005,10,22,05,53,7.30
2005,10,22,05,54,7.30
2005,10,22,05,55,7.30
2005,10,22,05,56,7.30
2005,10,22,05,57,7.30
2005,10,22,05,58,7.30
2005,10,22,05,59,7.30
2005,10,22,06,00,7.30
2005,10,22,06,01,7.30
2005,10,22,06,02,7.30
2005,10,22,06,03,7.30
2005,10,22,06,04,7.30
2005,10,22,06,05,7.30
2005,10,22,06,06,7.40
2005,10,22,06,07,7.40
2005,10,22,06,08,7.50
2005,10,22,06,09,7.50
2005,10,22,06,10,7.60
2005,10,22,06,11,7.60
2005,10,22,06,12,7.70
2005,10,22,06,13,7.70
2005,10,22,06,14,7.70
2005,10,22,06,15,7.70
2005,10,22,06,16,7.70
2005,10,22,06,17,7.70
2005,10,22,06,18,7.70
2005,10,22,06,19,7.70
2005,10,22,06,20,7.70
2005,10,22,06,21,7.70
2005,10,22,06,22,7.70
2005,10,22,06,23,7.60
2005,10,22,06,24,7.60
2005,10,22,06,25,7.60
2005,10,22,06,26,7.60
2005,10,22,06,27,7.50
2005,10,22,06,28,7.50
2005,10,22,06,29,7.50
2005,10,22,06,30,7.40
2005,10,22,06,31,7.50
2005,10,22,06,32,7.60
2005,10,22,06,33,7.60
2005,10,22,06,34,7.70
2005,10,22,06,35,7.80
2005,10,22,06,36,7.80
2005,10,22,06,37,7.80
2005,10,22,06,38,7.80
2005,10,22,06,39,7.80
2005,10,22,06,40,7.80
2005,10,22,06,41,7.80
2005,10,22,06,42,7.80
2005,10,22,06,43,7.80
2005,10,22,06,44,7.80
2005,10,22,06,45,7.70
2005,10,22,06,46,7.50
2005,10,22,06,47,7.40
2005,10,22,06,48,7.30
2005,10,22,06,49,7.30
2005,10,22,06,50,7.30
2005,10,22,06,51,7.30
2005,10,22,06,52,7.00
2005,10,22,06,53,6.80
2005,10,22,06,54,6.80
2005,10,22,06,55,6.70
2005,10,22,06,56,6.70
2005,10,22,06,57,6.60
2005,10,22,06,58,6.60
2005,10,22,06,59,6.60
2005,10,22,07,00,6.60
2005,10,22,07,01,6.70
2005,10,22,07,02,6.70
2005,10,22,07,03,6.70
2005,10,22,07,04,6.80
2005,10,22,07,05,6.80
2005,10,22,07,06,6.80
2005,10,22,07,07,6.80
2005,10,22,07,08,6.80
2005,10,22,07,09,6.80
2005,10,22,07,10,6.90
2005,10,22,07,11,7.00
2005,10,22,07,12,7.00
2005,10,22,07,13,7.00
2005,10,22,07,14,7.10
2005,10,22,07,15,7.10
2005,10,22,07,16,7.20
2005,10,22,07,17,7.30
2005,10,22,07,18,7.30
2005,10,22,07,19,7.30
2005,10,22,07,20,7.30
2005,10,22,07,21,7.30
2005,10,22,07,22,7.40
2005,10,22,07,23,7.40
2005,10,22,07,24,7.40
2005,10,22,07,25,7.50
2005,10,22,07,26,7.50
2005,10,22,07,27,7.50
2005,10,22,07,28,7.60
2005,10,22,07,29,7.60
2005,10,22,07,30,7.60
2005,10,22,07,31,7.60
2005,10,22,07,32,7.60
2005,10,22,07,33,7.60
2005,10,22,07,34,7.60
2005,10,22,07,35,7.60
2005,10,22,07,36,7.60
2005,10,22,07,37,7.60
2005,10,22,07,38,7.60
2005,10,22,07,39,7.60
2005,10,22,07,40,7.60
2005,10,22,07,41,7.60
2005,10,22,07,42,7.60
2005,10,22,07,43,7.60
2005,10,22,07,44,7.70
2005,10,22,07,45,7.70
2005,10,22,07,46,7.70
2005,10,22,07,47,7.70
2005,10,22,07,48,7.80
2005,10,22,07,49,7.80
2005,10,22,07,50,7.80
2005,10,22,07,51,7.80
2005,10,22,07,52,7.80
2005,10,22,07,53,7.80
2005,10,22,07,54,7.80
2005,10,22,07,55,7.70
2005,10,22,07,56,7.70
2005,10,22,07,57,7.60
2005,10,22,07,58,7.60
2005,10,22,07,59,7.60
2005,10,22,08,00,7.50
2005,10,22,08,01,7.50
2005,10,22,08,02,7.50
2005,10,22,08,03,7.50
2005,10,22,08,04,7.50
2005,10,22,08,05,7.50
2005,10,22,08,06,7.40
2005,10,22,08,07,7.40
2005,10,22,08,08,7.40
2005,10,22,08,09,7.50
2005,10,22,08,10,7.50
2005,10,22,08,11,7.60
2005,10,22,08,12,7.60
2005,10,22,08,13,7.70
2005,10,22,08,14,7.80
2005,10,22,08,15,7.80
2005,10,22,08,16,7.80
2005,10,22,08,17,7.90
2005,10,22,08,18,8.00
2005,10,22,08,19,8.10
2005,10,22,08,20,8.20
2005,10,22,08,21,8.20
2005,10,22,08,22,8.20
2005,10,22,08,23,8.20
2005,10,22,08,24,8.20
2005,10,22,08,25,8.20
2005,10,22,08,26,8.10
2005,10,22,08,27,8.10
2005,10,22,08,28,8.10
2005,10,22,08,29,8.00
2005,10,22,08,30,7.90
2005,10,22,08,31,7.90
2005,10,22,08,32,7.90
2005,10,22,08,33,7.90
2005,10,22,08,34,8.00
2005,10,22,08,35,8.00
2005,10,22,08,36,8.10
2005,10,22,08,37,8.10
2005,10,22,08,38,8.10
2005,10,22,08,39,8.00
2005,10,22,08,40,7.90
2005,10,22,08,41,7.80
2005,10,22,08,42,7.80
2005,10,22,08,43,7.70
2005,10,22,08,44,7.70
2005,10,22,08,45,7.60
2005,10,22,08,46,7.50
2005,10,22,08,47,7.50
2005,10,22,08,48,7.40
2005,10,22,08,49,7.30
2005,10,22,08,50,7.30
2005,10,22,08,51,7.30
2005,10,22,08,52,7.20
2005,10,22,08,53,7.30
2005,10,22,08,54,7.30
2005,10,22,08,55,7.30
2005,10,22,08,56,7.40
2005,10,22,08,57,7.50
2005,10,22,08,58,7.50
2005,10,22,08,59,7.60
2005,10,22,09,00,7.70
2005,10,22,09,01,7.80
2005,10,22,09,02,7.90
2005,10,22,09,03,8.00
2005,10,22,09,04,8.20
2005,10,22,09,05,8.40
2005,10,22,09,06,8.50
2005,10,22,09,07,8.60
2005,10,22,09,08,8.70
2005,10,22,09,09,8.80
2005,10,22,09,10,8.90
2005,10,22,09,11,9.00
2005,10,22,09,12,9.10
2005,10,22,09,13,9.20
2005,10,22,09,14,9.20
2005,10,22,09,15,9.20
2005,10,22,09,16,9.40
2005,10,22,09,17,9.40
2005,10,22,09,18,9.50
2005,10,22,09,19,9.50
2005,10,22,09,20,9.60
2005,10,22,09,21,9.60
2005,10,22,09,22,9.70
2005,10,22,09,23,9.70
2005,10,22,09,24,9.70
2005,10,22,09,25,9.80
2005,10,22,09,26,9.80
2005,10,22,09,27,9.80
2005,10,22,09,28,9.90
2005,10,22,09,29,9.90
2005,10,22,09,30,9.90
2005,10,22,09,31,10.00
2005,10,22,09,32,10.10
2005,10,22,09,33,10.20
2005,10,22,09,34,10.20
2005,10,22,09,35,10.30
2005,10,22,09,36,10.30
2005,10,22,09,37,10.40
2005,10,22,09,38,10.40
2005,10,22,09,39,10.40
2005,10,22,09,40,10.50
2005,10,22,09,41,10.60
2005,10,22,09,42,10.60
2005,10,22,09,43,10.70
2005,10,22,09,46,10.90
2005,10,22,09,47,10.90
2005,10,22,09,48,11.00
2005,10,22,09,49,11.10
2005,10,22,09,50,11.10
2005,10,22,09,51,11.20
2005,10,22,09,52,11.20
2005,10,22,09,53,11.30
2005,10,22,09,54,11.30
2005,10,22,09,55,11.30
2005,10,22,09,56,11.40
2005,10,22,09,57,11.40
2005,10,22,09,58,11.40
2005,10,22,09,59,11.40
2005,10,22,10,00,11.60
2005,10,22,10,01,11.60
2005,10,22,10,02,11.60
2005,10,22,10,03,11.70
2005,10,22,10,04,11.70
2005,10,22,10,05,11.80
2005,10,22,10,06,11.80
2005,10,22,10,07,11.80
2005,10,22,10,08,11.80
2005,10,22,10,09,11.80
2005,10,22,10,10,11.80
2005,10,22,10,11,11.90
2005,10,22,10,12,11.90
2005,10,22,10,13,11.90
2005,10,22,10,14,11.90
2005,10,22,10,15,12.00
2005,10,22,10,16,12.00
2005,10,22,10,17,12.00
2005,10,22,10,18,12.00
2005,10,22,10,19,12.00
2005,10,22,10,20,12.00
2005,10,22,10,21,12.00
2005,10,22,10,22,12.00
2005,10,22,10,23,12.00
2005,10,22,10,24,12.10
2005,10,22,10,25,12.10
2005,10,22,10,26,12.10
2005,10,22,10,27,12.20
2005,10,22,10,28,12.20
2005,10,22,10,29,12.20
2005,10,22,10,30,12.20
2005,10,22,10,31,12.20
2005,10,22,10,32,12.20
2005,10,22,10,33,12.20
2005,10,22,10,34,12.20
2005,10,22,10,35,12.20
2005,10,22,10,36,12.20
2005,10,22,10,37,12.20
2005,10,22,10,38,12.20
2005,10,22,10,39,12.30
2005,10,22,10,40,12.30
2005,10,22,10,41,12.30
2005,10,22,10,42,12.30
2005,10,22,10,43,12.30
2005,10,22,10,44,12.30
2005,10,22,10,45,12.40
2005,10,22,10,46,12.50
2005,10,22,10,47,12.50
2005,10,22,10,48,12.50
2005,10,22,10,49,12.60
2005,10,22,10,50,12.60
2005,10,22,10,51,12.60
2005,10,22,10,52,12.60
2005,10,22,10,53,12.60
2005,10,22,10,54,12.60
2005,10,22,10,55,12.60
2005,10,22,10,56,12.70
2005,10,22,10,57,12.70
2005,10,22,10,58,12.70
2005,10,22,10,59,12.70
2005,10,22,11,00,12.80
2005,10,22,11,01,12.80
2005,10,22,11,02,12.80
2005,10,22,11,03,12.90
2005,10,22,11,04,12.90
2005,10,22,11,05,13.00
2005,10,22,11,06,13.00
2005,10,22,11,07,13.00
2005,10,22,11,08,13.00
2005,10,22,11,09,13.10
2005,10,22,11,10,13.00
2005,10,22,11,11,13.00
2005,10,22,11,12,13.00
2005,10,22,11,13,13.00
2005,10,22,11,14,13.00
2005,10,22,11,15,12.90
2005,10,22,11,16,12.90
2005,10,22,11,17,12.90
2005,10,22,11,18,13.00
2005,10,22,11,19,13.00
2005,10,22,11,20,13.00
2005,10,22,11,21,13.00
2005,10,22,11,22,13.00
2005,10,22,11,23,13.00
2005,10,22,11,24,13.00
2005,10,22,11,25,13.00
2005,10,22,11,26,13.00
2005,10,22,11,27,13.00
2005,10,22,11,28,13.10
2005,10,22,11,29,13.10
2005,10,22,11,30,13.10
2005,10,22,11,31,13.10
2005,10,22,11,32,13.20
2005,10,22,11,33,13.30
2005,10,22,11,34,13.30
2005,10,22,11,35,13.30
2005,10,22,11,36,13.40
2005,10,22,11,37,13.40
2005,10,22,11,38,13.40
2005,10,22,11,39,13.40
2005,10,22,11,40,13.40
2005,10,22,11,41,13.30
2005,10,22,11,42,13.30
2005,10,22,11,43,13.30
2005,10,22,11,44,13.30
2005,10,22,11,45,13.30
2005,10,22,11,46,13.30
2005,10,22,11,47,13.30
2005,10,22,11,48,13.40
2005,10,22,11,49,13.40
2005,10,22,11,50,13.40
2005,10,22,11,51,13.40
2005,10,22,11,52,13.40
2005,10,22,11,53,13.40
2005,10,22,11,54,13.50
2005,10,22,11,55,13.50
2005,10,22,11,56,13.50
2005,10,22,11,57,13.60
2005,10,22,11,58,13.60
2005,10,22,11,59,13.70
2005,10,22,12,00,13.70
2005,10,22,12,01,13.70
2005,10,22,12,02,13.70
2005,10,22,12,03,13.70
2005,10,22,12,04,13.70
2005,10,22,12,05,13.70
2005,10,22,12,06,13.70
2005,10,22,12,07,13.70
2005,10,22,12,08,13.70
2005,10,22,12,09,13.70
2005,10,22,12,10,13.70
2005,10,22,12,11,13.70
2005,10,22,12,12,13.70
2005,10,22,12,13,13.70
2005,10,22,12,14,13.70
2005,10,22,12,15,13.70
2005,10,22,12,16,13.70
2005,10,22,12,17,13.70
2005,10,22,12,18,13.70
2005,10,22,12,19,13.70
2005,10,22,12,20,13.70
2005,10,22,12,21,13.80
2005,10,22,12,22,13.80
2005,10,22,12,23,13.80
2005,10,22,12,24,13.80
2005,10,22,12,25,13.80
2005,10,22,12,26,13.70
2005,10,22,12,27,13.70
2005,10,22,12,28,13.70
2005,10,22,12,29,13.70
2005,10,22,12,30,13.70
2005,10,22,12,31,13.70
2005,10,22,12,32,13.70
2005,10,22,12,33,13.70
2005,10,22,12,34,13.70
2005,10,22,12,35,13.70
2005,10,22,12,36,13.70
2005,10,22,12,37,13.70
2005,10,22,12,38,13.60
2005,10,22,12,39,13.60
2005,10,22,12,40,13.60
2005,10,22,12,41,13.50
2005,10,22,12,42,13.50
2005,10,22,12,43,13.50
2005,10,22,12,44,13.40
2005,10,22,12,45,13.40
2005,10,22,12,46,13.40
2005,10,22,12,47,13.40
2005,10,22,12,48,13.40
2005,10,22,12,49,13.40
2005,10,22,12,50,13.40
2005,10,22,12,51,13.40
2005,10,22,12,52,13.40
2005,10,22,12,53,13.40
2005,10,22,12,54,13.40
2005,10,22,12,55,13.40
2005,10,22,12,56,13.40
2005,10,22,12,57,13.40
2005,10,22,12,58,13.40
2005,10,22,12,59,13.40
2005,10,22,13,00,13.50
2005,10,22,13,01,13.50
2005,10,22,13,02,13.50
2005,10,22,13,03,13.40
2005,10,22,13,04,13.40
2005,10,22,13,05,13.40
2005,10,22,13,06,13.40
2005,10,22,13,07,13.40
2005,10,22,13,08,13.40
2005,10,22,13,09,13.40
2005,10,22,13,10,13.40
2005,10,22,13,11,13.40
2005,10,22,13,12,13.40
2005,10,22,13,13,13.40
2005,10,22,13,14,13.40
2005,10,22,13,15,13.40
2005,10,22,13,16,13.40
2005,10,22,13,17,13.50
2005,10,22,13,18,13.50
2005,10,22,13,19,13.50
2005,10,22,13,20,13.50
2005,10,22,13,21,13.50
2005,10,22,13,22,13.60
2005,10,22,13,23,13.60
2005,10,22,13,24,13.60
2005,10,22,13,25,13.60
2005,10,22,13,26,13.60
2005,10,22,13,27,13.60
2005,10,22,13,28,13.60
2005,10,22,13,29,13.60
2005,10,22,13,30,13.60
2005,10,22,13,31,13.60
2005,10,22,13,32,13.60
2005,10,22,13,33,13.60
2005,10,22,13,34,13.60
2005,10,22,13,35,13.60
2005,10,22,13,36,13.60
2005,10,22,13,37,13.60
2005,10,22,13,38,13.60
2005,10,22,13,39,13.60
2005,10,22,13,46,13.70
2005,10,22,13,47,13.70
2005,10,22,13,48,13.70
2005,10,22,13,49,13.70
2005,10,22,13,50,13.70
2005,10,22,13,51,13.70
2005,10,22,13,52,13.70
2005,10,22,13,53,13.70
2005,10,22,13,54,13.70
2005,10,22,13,55,13.70
2005,10,22,13,56,13.80
2005,10,22,13,57,13.80
2005,10,22,13,58,13.80
2005,10,22,13,59,13.80
2005,10,22,14,00,13.80
2005,10,22,14,01,13.80
2005,10,22,14,02,13.80
2005,10,22,14,03,13.70
2005,10,22,14,04,13.70
2005,10,22,14,05,13.70
2005,10,22,14,06,13.70
2005,10,22,14,07,13.70
2005,10,22,14,08,13.70
2005,10,22,14,09,13.70
2005,10,22,14,10,13.70
2005,10,22,14,11,13.70
2005,10,22,14,12,13.70
2005,10,22,14,13,13.70
2005,10,22,14,14,13.80
2005,10,22,14,15,13.80
2005,10,22,14,16,13.80
2005,10,22,14,17,13.80
2005,10,22,14,18,13.80
2005,10,22,14,19,13.80
2005,10,22,14,20,13.80
2005,10,22,14,21,13.90
2005,10,22,14,22,13.90
2005,10,22,14,23,13.80
2005,10,22,14,24,13.80
2005,10,22,14,25,13.80
2005,10,22,14,26,13.80
2005,10,22,14,27,13.80
2005,10,22,14,28,13.80
2005,10,22,14,29,13.80
2005,10,22,14,30,13.80
2005,10,22,14,31,13.80
2005,10,22,14,32,13.70
2005,10,22,14,33,13.70
2005,10,22,14,34,13.70
2005,10,22,14,35,13.70
2005,10,22,14,36,13.70
2005,10,22,14,37,13.70
2005,10,22,14,46,13.70
2005,10,22,14,47,13.70
2005,10,22,14,48,13.70
2005,10,22,14,49,13.80
2005,10,22,14,50,13.90
2005,10,22,14,51,13.90
2005,10,22,14,52,14.00
2005,10,22,14,53,14.10
2005,10,22,14,54,14.10
2005,10,22,14,55,14.20
2005,10,22,14,56,14.20
2005,10,22,14,57,14.20
2005,10,22,14,58,14.30
2005,10,22,14,59,14.30
2005,10,22,15,00,14.30
2005,10,22,15,01,14.30
2005,10,22,15,02,14.30
2005,10,22,15,03,14.30
2005,10,22,15,04,14.20
2005,10,22,15,05,14.20
2005,10,22,15,06,14.20
2005,10,22,15,07,14.20
2005,10,22,15,08,14.20
2005,10,22,15,09,14.30
2005,10,22,15,10,14.40
2005,10,22,15,11,14.40
2005,10,22,15,12,14.40
2005,10,22,15,13,14.30
2005,10,22,15,14,14.30
2005,10,22,15,15,14.30
2005,10,22,15,16,14.30
2005,10,22,15,17,14.40
2005,10,22,15,18,14.40
2005,10,22,15,19,14.40
2005,10,22,15,20,14.50
2005,10,22,15,21,14.50
2005,10,22,15,22,14.60
2005,10,22,15,23,14.60
2005,10,22,15,24,14.70
2005,10,22,15,25,14.80
2005,10,22,15,26,15.00
2005,10,22,15,27,15.10
2005,10,22,15,28,15.20
2005,10,22,15,29,15.40
2005,10,22,15,30,15.50
2005,10,22,15,31,15.60
2005,10,22,15,32,15.70
2005,10,22,15,33,15.80
2005,10,22,15,34,15.80
2005,10,22,15,35,15.80
2005,10,22,15,36,15.80
2005,10,22,15,37,15.80
2005,10,22,15,38,15.80
2005,10,22,15,39,15.70
2005,10,22,15,40,15.70
2005,10,22,15,41,15.70
2005,10,22,15,42,15.60
2005,10,22,15,43,15.60
2005,10,22,15,44,15.60
2005,10,22,15,45,15.50
2005,10,22,15,46,15.50
2005,10,22,15,47,15.50
2005,10,22,15,48,15.50
2005,10,22,15,49,15.50
2005,10,22,15,50,15.50
2005,10,22,15,51,15.50
2005,10,22,15,52,15.50
2005,10,22,15,53,15.40
2005,10,22,15,54,15.40
2005,10,22,15,55,15.40
2005,10,22,15,56,15.40
2005,10,22,15,57,15.40
2005,10,22,15,58,15.40
2005,10,22,15,59,15.40
2005,10,22,16,00,15.50
2005,10,22,16,01,15.50
2005,10,22,16,02,15.50
2005,10,22,16,03,15.50
2005,10,22,16,04,15.50
2005,10,22,16,05,15.60
2005,10,22,16,06,15.60
2005,10,22,16,07,15.60
2005,10,22,16,08,15.60
2005,10,22,16,09,15.70
2005,10,22,16,10,15.70
2005,10,22,16,11,15.70
2005,10,22,16,12,15.80
2005,10,22,16,13,15.80
2005,10,22,16,14,15.80
2005,10,22,16,15,15.80
2005,10,22,16,16,15.80
2005,10,22,16,17,15.90
2005,10,22,16,18,15.90
2005,10,22,16,19,15.90
2005,10,22,16,20,16.00
2005,10,22,16,21,16.10
2005,10,22,16,22,16.10
2005,10,22,16,23,16.10
2005,10,22,16,24,16.10
2005,10,22,16,25,16.10
2005,10,22,16,26,16.10
2005,10,22,16,27,16.10
2005,10,22,16,28,16.10
2005,10,22,16,29,16.10
2005,10,22,16,30,16.10
2005,10,22,16,31,16.10
2005,10,22,16,32,16.10
2005,10,22,16,33,16.10
2005,10,22,16,34,16.10
2005,10,22,16,35,16.10
2005,10,22,16,36,16.10
2005,10,22,16,37,16.10
2005,10,22,16,38,16.10
2005,10,22,16,39,16.10
2005,10,22,16,40,16.10
2005,10,22,16,41,16.10
2005,10,22,16,42,16.10
2005,10,22,16,43,16.10
2005,10,22,16,44,16.10
2005,10,22,16,45,16.10
2005,10,22,16,46,16.10
2005,10,22,16,47,16.10
2005,10,22,16,48,16.10
2005,10,22,16,49,16.10
2005,10,22,16,50,16.00
2005,10,22,16,51,15.90
2005,10,22,16,52,15.90
2005,10,22,16,53,15.90
2005,10,22,16,54,15.90
2005,10,22,16,55,15.90
2005,10,22,16,56,15.80
2005,10,22,16,57,15.80
2005,10,22,16,58,15.80
2005,10,22,16,59,15.80
2005,10,22,17,00,15.80
2005,10,22,17,01,15.70
2005,10,22,17,02,15.70
2005,10,22,17,03,15.80
2005,10,22,17,04,15.80
2005,10,22,17,05,15.70
2005,10,22,17,06,15.70
2005,10,22,17,07,15.60
2005,10,22,17,08,15.50
2005,10,22,17,09,15.50
2005,10,22,17,10,15.40
2005,10,22,17,11,15.40
2005,10,22,17,12,15.30
2005,10,22,17,13,15.30
2005,10,22,17,14,15.30
2005,10,22,17,15,15.20
2005,10,22,17,16,15.00
2005,10,22,17,17,15.00
2005,10,22,17,18,14.90
2005,10,22,17,19,14.90
2005,10,22,17,20,14.80
2005,10,22,17,21,14.80
2005,10,22,17,22,14.70
2005,10,22,17,23,14.70
2005,10,22,17,24,14.60
2005,10,22,17,25,14.60
2005,10,22,17,26,14.60
2005,10,22,17,27,14.50
2005,10,22,17,28,14.40
2005,10,22,17,29,14.40
2005,10,22,17,30,14.40
2005,10,22,17,31,14.30
2005,10,22,17,32,14.30
2005,10,22,17,33,14.20
2005,10,22,17,34,14.20
2005,10,22,17,35,14.20
2005,10,22,17,36,14.10
2005,10,22,17,37,14.10
2005,10,22,17,38,14.00
2005,10,22,17,39,13.90
2005,10,22,17,40,13.90
2005,10,22,17,41,13.80
2005,10,22,17,42,13.70
2005,10,22,17,43,13.70
2005,10,22,17,44,13.70
2005,10,22,17,45,13.60
2005,10,22,17,46,13.60
2005,10,22,17,47,13.50
2005,10,22,17,48,13.50
2005,10,22,17,49,13.40
2005,10,22,17,50,13.40
2005,10,22,17,51,13.30
2005,10,22,17,52,13.30
2005,10,22,17,53,13.30
2005,10,22,17,54,13.30
2005,10,22,17,55,13.30
2005,10,22,17,56,13.30
2005,10,22,17,57,13.20
2005,10,22,17,58,13.20